Change the Weather History Date:

Sunday, October 30, 2011

  Actual Average (KDVL) Record (KDVL)
Temperature  
Mean Temperature 36 °F -  
Max Temperature 39 °F 46 °F 76 °F (1950)
Min Temperature 32 °F 27 °F 2 °F (1991)
Degree Days  
Heating Degree Days 30    
Moisture  
Dew Point 34 °F    
Average Humidity 90    
Maximum Humidity 100    
Minimum Humidity 81    
Precipitation  
Precipitation 0.00 in - - ()
Sea Level Pressure  
Sea Level Pressure 29.77 in    
Wind  
Wind Speed 13 mph (WNW)    
Max Wind Speed 17 mph    
Max Gust Speed 23 mph    
Visibility 10 miles    
Events      
Averages and records for this station are not official NWS values.
T = Trace of Precipitation, MM = Missing Value Source: NWS Daily Summary

Daily Weather History Graph

Daily Weather History Graph

Search for Another Location

Airport or City:

Trip Planner

Search our weather history database for the weather conditions in past years. The results will help you decide how hot, cold, wet, or windy it might be!

Date:

Astronomy

Oct. 30, 2011 Rise Set
Actual Time 8:16 AM CDT 6:16 PM CDT
Civil Twilight 7:43 AM CDT 6:49 PM CDT
Nautical Twilight 7:06 AM CDT 7:26 PM CDT
Astronomical Twilight 6:30 AM CDT 8:03 PM CDT
Moon 12:52 PM CDT (10/30) 9:33 PM CDT (10/30)
Length of Visible Light 11h 05m
Length of Day
10h 00m
Waxing Crescent, 20% of the Moon is Illuminated
Oct 30
Waxing Crescent
Nov 2
First Quarter
Nov 10
Full
Nov 18
Last Quarter
Nov 25
New

Hourly Weather History & Observations

Time (CDT) Temp. Windchill Dew Point Humidity Pressure Visibility Wind Dir Wind Speed Gust Speed Precip Events Conditions
12:15 AM 39.2 °F 32.0 °F 35.6 °F 87% 29.70 in 10.0 mi West 11.5 mph - N/A   Overcast
12:35 AM 39.2 °F 30.5 °F 35.6 °F 87% 29.71 in 10.0 mi West 16.1 mph - N/A   Overcast
12:55 AM 39.2 °F 31.2 °F 33.8 °F 81% 29.71 in 10.0 mi WNW 13.8 mph - N/A   Overcast
1:15 AM 37.4 °F 29.3 °F 35.6 °F 93% 29.71 in 10.0 mi WNW 12.7 mph - N/A   Overcast
1:35 AM 37.4 °F 29.3 °F 35.6 °F 93% 29.72 in 10.0 mi WNW 12.7 mph - N/A   Mostly Cloudy
1:55 AM 37.4 °F 28.9 °F 35.6 °F 93% 29.72 in 10.0 mi WNW 13.8 mph - N/A   Overcast
2:15 AM 37.4 °F 28.9 °F 35.6 °F 93% 29.72 in 10.0 mi WNW 13.8 mph - N/A   Overcast
2:35 AM 37.4 °F 28.5 °F 35.6 °F 93% 29.73 in 10.0 mi WNW 15.0 mph 19.6 mph N/A   Overcast
2:55 AM 37.4 °F 28.5 °F 35.6 °F 93% 29.73 in 10.0 mi WNW 15.0 mph - N/A   Overcast
3:15 AM 37.4 °F 28.9 °F 35.6 °F 93% 29.73 in 10.0 mi WNW 13.8 mph - N/A   Overcast
3:35 AM 37.4 °F 28.9 °F 35.6 °F 93% 29.73 in 10.0 mi WNW 13.8 mph - N/A   Overcast
3:55 AM 37.4 °F 28.9 °F 35.6 °F 93% 29.73 in 10.0 mi WNW 13.8 mph - N/A   Overcast
4:55 AM 35.6 °F 25.5 °F 33.8 °F 93% 29.74 in 10.0 mi WNW 17.3 mph 20.7 mph N/A   Overcast
5:15 AM 35.6 °F 25.5 °F 32.0 °F 87% 29.74 in 10.0 mi WNW 17.3 mph 23.0 mph N/A   Overcast
5:35 AM 35.6 °F 27.1 °F 32.0 °F 87% 29.74 in 10.0 mi WNW 12.7 mph - N/A   Overcast
5:55 AM 35.6 °F 26.2 °F 32.0 °F 87% 29.74 in 10.0 mi WNW 15.0 mph - N/A   Overcast
6:15 AM 35.6 °F 25.9 °F 32.0 °F 87% 29.75 in 10.0 mi WNW 16.1 mph - N/A   Overcast
6:35 AM 35.6 °F 26.2 °F 32.0 °F 87% 29.75 in 10.0 mi WNW 15.0 mph - N/A   Overcast
6:55 AM 35.6 °F 27.5 °F 32.0 °F 87% 29.76 in 10.0 mi NW 11.5 mph - N/A   Overcast
8:35 AM 33.8 °F 24.3 °F 32.0 °F 93% 29.81 in 10.0 mi NW 13.8 mph 20.7 mph N/A   Overcast
1:35 PM 37.4 °F 28.2 °F 32.0 °F 81% 29.87 in 10.0 mi NW 16.1 mph - N/A   Overcast
6:35 PM 37.4 °F 33.8 °F 32.0 °F 81% 29.92 in 10.0 mi WNW 4.6 mph - N/A   Overcast
7:55 PM 35.6 °F 30.7 °F 32.0 °F 87% 29.93 in 10.0 mi West 5.8 mph - N/A   Overcast
8:55 PM 32.0 °F 25.6 °F 32.0 °F 100% 29.92 in 10.0 mi WSW 6.9 mph - N/A   Clear
9:35 PM 32.0 °F 27.5 °F 30.2 °F 93% 29.91 in 10.0 mi SW 4.6 mph - N/A   Clear